Topeka, KS

4:03 PM CDT on March 26, 2017 (GMT -0500)
Billard Municipal

Weather History for KTOP - January, 2014

Change the Weather History Date:

Saturday, January 11, 2014

  Actual Average Record
Temperature  
Mean Temperature 40 °F 30 °F  
Max Temperature 50 °F 40 °F 66 °F (1911)
Min Temperature 30 °F 19 °F -15 °F (1977)
Degree Days  
Heating Degree Days 25 36  
Month to date heating degree days 475 389  
Since 1 July heating degree days 2579 2406  
Cooling Degree Days 0 0  
Month to date cooling degree days 0 0  
Year to date cooling degree days 0 0  
Moisture  
Dew Point 29 °F    
Average Humidity 69    
Maximum Humidity 89    
Minimum Humidity 49    
Precipitation  
Precipitation 0.00 in 0.02 in 0.68 in (1890)
Month to date precipitation 0.34 0.27  
Year to date precipitation 0.34 0.27  
Snow  
Snow 0.00 in 0.10 in 3.40 in (1909)
Month to date snowfall 3.8 1.7  
Year to date snowfall 3.8 1.7  
Since 1 July snowfall 8.1 8.2  
Snow Depth 0.00 in    
Sea Level Pressure  
Sea Level Pressure 29.84 in    
Wind  
Wind Speed 8 mph (West)    
Max Wind Speed 21 mph    
Max Gust Speed 26 mph    
Visibility 9 miles    
Events      
T = Trace of Precipitation, MM = Missing Value Source: NWS Daily Summary

Daily Weather History Graph

Daily Weather History Graph

Search for Another Location

Airport or City:

Trip Planner

Search our weather history database for the weather conditions in past years. The results will help you decide how hot, cold, wet, or windy it might be!

Date:

Astronomy

Jan. 11, 2014 Rise Set
Actual Time 7:41 AM CST 5:20 PM CST
Civil Twilight 7:11 AM CST 5:49 PM CST
Nautical Twilight 6:38 AM CST 6:22 PM CST
Astronomical Twilight 6:06 AM CST 6:54 PM CST
Moon 2:04 PM CST (1/11) 3:47 AM CST (1/11)
Length of Visible Light 10h 37m
Length of Day
9h 38m
Waxing Gibbous, 83% of the Moon is Illuminated
Jan 11
Waxing Gibbous
Jan 15
Full
Jan 23
Last Quarter
Jan 30
New
Feb 6
First Quarter

Hourly Weather History & Observations

Time (CST) Temp. Windchill Dew Point Humidity Pressure Visibility Wind Dir Wind Speed Gust Speed Precip Events Conditions
12:53 AM 35.1 °F 31.0 °F 32.0 °F 89% 29.69 in 4.0 mi West 4.6 mph - N/A   Overcast
1:21 AM 34.0 °F 29.8 °F 32.0 °F 92% 29.68 in 4.0 mi West 4.6 mph - N/A   Scattered Clouds
1:53 AM 33.1 °F - 30.9 °F 92% 29.71 in 3.0 mi Calm Calm - N/A   Clear
2:53 AM 34.0 °F 27.2 °F 30.9 °F 89% 29.74 in 5.0 mi West 8.1 mph - N/A   Clear
3:53 AM 34.0 °F 27.2 °F 30.0 °F 85% 29.76 in 6.0 mi West 8.1 mph - N/A   Clear
4:53 AM 33.1 °F 26.1 °F 28.9 °F 85% 29.76 in 7.0 mi West 8.1 mph - N/A   Clear
5:53 AM 32.0 °F 25.6 °F 28.0 °F 85% 29.78 in 10.0 mi West 6.9 mph - N/A   Clear
6:53 AM 32.0 °F 24.2 °F 28.0 °F 85% 29.80 in 10.0 mi West 9.2 mph - N/A   Clear
7:53 AM 33.1 °F 27.7 °F 28.9 °F 85% 29.81 in 10.0 mi WSW 5.8 mph - N/A   Overcast
8:53 AM 35.1 °F 27.4 °F 28.9 °F 78% 29.83 in 10.0 mi West 10.4 mph - N/A   Overcast
9:53 AM 36.0 °F 29.6 °F 30.0 °F 79% 29.87 in 10.0 mi West 8.1 mph - N/A   Mostly Cloudy
10:53 AM 39.9 °F 32.5 °F 30.9 °F 70% 29.88 in 10.0 mi West 12.7 mph - N/A   Clear
11:53 AM 44.1 °F 38.1 °F 32.0 °F 63% 29.87 in 10.0 mi West 11.5 mph 19.6 mph N/A   Clear
12:53 PM 46.9 °F - 30.0 °F 52% 29.87 in 10.0 mi WNW 17.3 mph 24.2 mph N/A   Clear
1:53 PM 48.9 °F - 30.9 °F 50% 29.87 in 10.0 mi WNW 13.8 mph 21.9 mph N/A   Clear
2:53 PM 48.9 °F - 30.0 °F 48% 29.88 in 10.0 mi WNW 17.3 mph 21.9 mph N/A   Clear
3:53 PM 48.9 °F - 30.0 °F 48% 29.90 in 10.0 mi West 15.0 mph - N/A   Clear
4:53 PM 46.0 °F 43.9 °F 28.9 °F 51% 29.91 in 10.0 mi West 4.6 mph - N/A   Clear
5:53 PM 44.1 °F 40.1 °F 28.9 °F 55% 29.92 in 10.0 mi WSW 6.9 mph - N/A   Clear
6:53 PM 42.1 °F 38.4 °F 28.9 °F 60% 29.92 in 10.0 mi SW 5.8 mph - N/A   Clear
7:53 PM 39.0 °F - 28.9 °F 67% 29.93 in 10.0 mi Calm Calm - N/A   Clear
8:53 PM 34.0 °F 31.0 °F 27.0 °F 75% 29.94 in 10.0 mi South 3.5 mph - N/A   Clear
9:53 PM 35.1 °F 31.0 °F 28.0 °F 76% 29.92 in 10.0 mi South 4.6 mph - N/A   Clear
10:53 PM 32.0 °F - 26.1 °F 79% 29.91 in 10.0 mi Calm Calm - N/A   Clear
11:53 PM 36.0 °F 32.1 °F 27.0 °F 70% 29.88 in 10.0 mi SSW 4.6 mph - N/A   Clear